Location: Weatherford
(35.5260°N, 98.7070°W)
Time: 15:40:47
(UTC-05:00)

OPAL - Visible Passes

Search period start: 25 May 2018 00:00
Search period end: 04 June 2018 00:00
Orbit: 743 x 796 km, 100.2° (Epoch: 24 May)

Date Brightness Start Highest point End Pass type
(mag) Time Alt. Az. Time Alt. Az. Time Alt. Az.
25 May 10.0 00:48:33 11° W 00:48:33 11° W 00:49:31 10° WNW visible
25 May 8.6 22:32:13 26° E 22:33:20 28° ENE 22:37:31 10° N visible
26 May 8.9 00:12:30 28° W 00:12:30 28° W 00:16:20 10° NW visible
26 May 9.5 21:56:11 10° E 21:58:13 13° ENE 22:00:19 10° NE visible
26 May 7.5 23:36:28 67° WSW 23:36:29 67° WSW 23:41:25 10° NNW visible
27 May 7.7 23:00:26 48° E 23:01:03 51° ENE 23:05:50 10° N visible
28 May 9.7 00:40:43 15° W 00:40:43 15° W 00:42:56 10° WNW visible
28 May 8.9 22:24:23 20° E 22:25:47 23° ENE 22:29:35 10° NNE visible
29 May 8.6 00:04:40 35° W 00:04:40 35° W 00:08:57 10° NW visible
29 May 7.3 23:28:38 81° SSW 23:28:50 85° WSW 23:33:49 10° NNW visible
30 May 8.0 22:52:36 37° E 22:53:27 40° ENE 22:58:04 10° N visible
31 May 9.4 00:32:53 19° W 00:32:53 19° W 00:35:55 10° NW visible
31 May 9.1 22:16:33 16° E 22:18:15 18° ENE 22:21:34 10° NNE visible
31 May 8.1 23:56:51 45° W 23:56:51 45° W 00:01:29 10° NNW visible
01 Jun 7.3 23:20:48 71° ESE 23:21:13 76° ENE 23:26:10 10° NNW visible
02 Jun 8.4 22:44:46 29° E 22:45:52 32° ENE 22:50:15 10° N visible
03 Jun 9.1 00:25:03 24° W 00:25:03 24° W 00:28:43 10° NW visible
03 Jun 9.4 22:08:44 12° E 22:10:43 15° ENE 22:13:23 10° NNE visible
03 Jun 7.7 23:49:01 57° WSW 23:49:04 58° WSW 23:53:58 10° NNW visible
